7 * 24
多渠道服务支持
STARLINK-32201是美国SpaceX公司星链(Starlink)星座的成员卫星,于2024年10月15日发射升空。星链项目旨在低地球轨道构建大规模卫星互联网星座,为全球偏远、欠发达地区提供高速低延迟宽带服务,填补传统通信基础设施覆盖盲区。作为新一代低轨通信卫星,该卫星延续星链技术设计,通过星间组网实现全球覆盖,可支持视频通话、在线互联网访问等应用,助力SpaceX不断扩展星链星座的服务容量与覆盖范围,进一步巩固全球低轨卫星互联网的部署规模。
美国
(US)
| 数据来源 | 国际轨道数据 |
| 星历时间: | 2026-06-17T06:26:59+0800 1天前 查看轨道信息 |
| 半长轴: | 6840.841km |
| 偏心率: | 0.0001082 |
| 轨道倾角: | 53.162° |
| 近地点辐角 | 88.956° |
| 升交点赤经 | 28.238° |
| 平近点角 | 271.157° |
| 近地点: | 461.963km |
| 远地点: | 463.445km |
| 周期: | 93.848分钟 |
| 每日圈数: | 15.343999 |